Flag for Iran Weather past 2 weeks in Esfahãn, Iran

Now
36 °F

Clear.


Feels Like: 27 °F
Forecast: 23 / 59 °F
Wind: 14 mph from Northwest

Location: Esfahan

Current Time: Mar 6, 2015 at 6:20:28 AM

Latest Report: Mar 6, 2015 at 5:30 AM


Visibility: 10 mi

Pressure: 30.09 "Hg

Humidity: 48%

Dew point: 18 °F

Location of EsfahãnLocation

Historic Weather in Esfahãn — Graph

°F

Esfahãn temperature yesterday

Maximum temperature yesterday: 59 °F (at 2:00 PM)
Minimum temperature yesterday: 25 °F (at 6:30 AM)
Average temperature yesterday: 45 °F

Past Weeks' High & Low Weather Summary

 TemperatureHumidityPressure
High64 °F (Mar 1, 3:00 PM)100% (Feb 21, 5:00 AM)30.30 "Hg (Feb 21, 5:00 AM)
Low12 °F (Feb 28, 6:30 AM)10% (Mar 2, 5:00 PM)29.53 "Hg (Feb 20, 4:00 PM)
Average41 °F45%29.96 "Hg
* Reported Feb 19 5:30 AM — Mar 6 5:30 AM, Esfahãn, Weather by CustomWeather, © 2015

Note: Actual official high and low records may vary slightly from our data, if they occured in-between our weather recording intervals... More about our weather records

Advertising

Esfahãn weather history for previous 24 hours

 ConditionsComfort  
Time TempWeatherWind HumidityBarometerVisibility
5:30 AM
Fri, Mar 6
36 °FClear.14 mph48%30.09 "Hg10 mi
5:00 AM34 °FClear.9 mph44%30.09 "Hg10 mi
4:30 AM36 °FClear.12 mph44%30.07 "Hg10 mi
4:00 AM37 °FClear.12 mph41%30.04 "Hg10 mi
3:30 AM37 °FClear.9 mph41%30.04 "Hg10 mi
3:00 AM36 °FClear.12 mph44%30.04 "Hg10 mi
2:30 AM37 °FClear.12 mph41%30.04 "Hg10 mi
1:30 AM34 °FClear.7 mph41%30.04 "Hg10 mi
1:00 AM36 °FClear.7 mph38%30.04 "Hg10 mi
12:30 AM36 °FClear.5 mph38%30.04 "Hg10 mi
12:00 AM39 °FClear.12 mph36%30.01 "Hg10 mi
11:30 PM
Thu, Mar 5
41 °FClear.9 mph33%30.01 "Hg10 mi
11:00 PM41 °FClear.12 mph33%30.01 "Hg10 mi
10:30 PM45 °FClear.12 mph29%30.01 "Hg10 mi
10:00 PM45 °FClear.14 mph29%30.01 "Hg10 mi
9:30 PM46 °FClear.9 mph29%30.01 "Hg10 mi
9:00 PM46 °FClear.16 mph27%30.01 "Hg10 mi
8:30 PM50 °FClear.16 mph24%29.98 "Hg10 mi
8:00 PM48 °FClear.12 mph23%29.98 "Hg10 mi
7:30 PM48 °FClear.9 mph20%29.98 "Hg10 mi
7:00 PM50 °FClear.9 mph17%29.95 "Hg10 mi
6:30 PM54 °FSunny.16 mph13%29.95 "Hg10 mi
6:00 PM55 °FSunny.16 mph12%29.92 "Hg10 mi
5:30 PM59 °FSunny.12 mph13%29.92 "Hg10 mi
5:00 PM59 °FSunny.No wind14%29.92 "Hg10 mi
4:30 PM59 °FSunny.12 mph17%29.92 "Hg10 mi
4:00 PM59 °FSunny.12 mph17%29.92 "Hg10 mi
3:30 PM59 °FPassing clouds.7 mph18%29.92 "HgN/A
3:00 PM57 °FSunny.5 mph21%29.92 "Hg10 mi
2:30 PM59 °FSunny.12 mph18%29.92 "Hg10 mi
2:00 PM59 °FSunny.16 mph18%29.95 "Hg10 mi
1:30 PM55 °FPassing clouds.9 mph23%29.95 "HgN/A
1:00 PM55 °FPassing clouds.9 mph23%29.95 "HgN/A
12:30 PM54 °FPassing clouds.7 mph26%29.98 "HgN/A
12:00 PM52 °FPassing clouds.14 mph24%30.01 "Hg4 mi
11:30 AM52 °FPassing clouds.7 mph28%30.01 "Hg4 mi
11:00 AM52 °FHaze.9 mph30%30.01 "Hg3 mi
10:30 AM48 °FHaze.7 mph40%30.04 "Hg3 mi
10:00 AM48 °FPassing clouds.No wind40%30.04 "Hg4 mi
9:30 AM45 °FSunny.7 mph46%30.04 "Hg4 mi
9:00 AM43 °FSunny.9 mph49%30.04 "Hg4 mi
8:30 AM39 °FSunny.7 mph52%30.04 "Hg2 mi
8:00 AM37 °FSunny.No wind60%30.04 "Hg2 mi
7:00 AM28 °FHaze.5 mph74%30.01 "Hg1 mi
6:30 AM25 °FHaze.No wind80%30.01 "Hg1 mi
Weather by CustomWeather, © 2015

See weather overviewHow to use our weather pages